Location: Unspecified
(0.0000°N, 0.0000°E)
Time: 19:17:35
(UTC+00:00)

OBJECT B - Pass Details

Date: 17 March 2026
Orbit: 889 x 904 km, 45.0° (Epoch: 18 April)

Event Time Altitude Azimuth Distance (km) Brightness Sun altitude
Rises 19:46:07 0° 205° (SSW) 3,498 ? -24.5°
Reaches altitude 10° 19:48:56 10° 195° (SSW) 2,559 ? -25.2°
Enters shadow 19:52:37 28° 162° (SSE) 1,618 ? -26.1°
